User: anonymous   Login
Location: Unspecified
(0.0000°N, 0.0000°E)
Time: 07:31:04
(UTC+00:00)
Language:

MERIDIAN 2 - Orbit

View from above orbital plane
View from above orbital plane
View from above satellite
View from above satellite

Ground track
Ground track

The orbit data is extracted from the following two-line orbital elements,

1 35008U 09029A   20224.86497618  .00000308  00000-0  10000-3 0  9990
2 35008  63.0299 200.9137 7271350 249.5693 248.6515  2.24583925 91924
Epoch (UTC): 11 August 2020 20:45:33
Eccentricity: 0.7271350
inclination: 63.0299°
perigee height: 343 km
apogee height: 36162 km
right ascension of ascending node: 200.9137°
argument of perigee: 249.5693°
revolutions per day: 2.24583925
mean anomaly at epoch: 248.6515°
orbit number at epoch: 9192

The dashed part of the orbit path shows where the satellite is in the earth's shadow,  

DLR